Regional Weather Roundup
Issued by NWS Green Bay, WI

Home | Current Version | Previous Version | Text Only | Print | Product List | Glossary On
Versions: 1 2 3 4 5 6 7 8 9 10 11 12 13 14 15 16 17 18 19 20 21 22 23 24 25 26 27 28 29 30 31 32 33 34 35 36 37 38 39 40 41 42 43 44 45 46 47 48 49 50
000
ASUS43 KGRB 041400
RWRGRB

NORTH-CENTRAL AND NORTHEAST WISCONSIN REGIONAL WEATHER ROUNDUP
NATIONAL WEATHER SERVICE GREEN BAY WI
900 AM CDT SAT JUL 04 2015

WIZ005-009-010>012-018-019-041500-
NORTH CENTRAL WISCONSIN

CITY           SKY/WX    TMP DP  RH WIND       PRES   REMARKS
IRONWOOD       SUNNY     64  63  94 NE3       29.96R
MANITOWISH WTR NOT AVBL
ARBOR VITAE    NOT AVBL
EAGLE RIVER    NOT AVBL
LAND O LAKES   NOT AVBL
RHINELANDER    SUNNY     67  60  78 E7        30.00S
PHILLIPS       NOT AVBL
ANTIGO         NOT AVBL
TOMAHAWK       NOT AVBL
MERRILL        NOT AVBL
$$

WIZ013-073-041500-
NORTHEAST WISCONSIN

CITY           SKY/WX    TMP DP  RH WIND       PRES   REMARKS
IRON MOUNTAIN  SUNNY     68  60  75 NW3       29.98R
MARINETTE      SUNNY     66  57  72 E8        29.96S
$$

WIZ017-030-035>037-045-041500-
CENTRAL WISCONSIN

CITY           SKY/WX    TMP DP  RH WIND       PRES   REMARKS
MEDFORD        NOT AVBL
WAUSAU         SUNNY     69  59  70 N5        29.97R
MOSINEE        SUNNY     66  61  82 VRB5      29.99S
MARSHFIELD     SUNNY     69  59  70 NW5       29.98R
WISC RAPIDS    SUNNY     69  58  67 CALM      29.99R
STEVENS POINT  NOT AVBL
WAUPACA        NOT AVBL
SHAWANO        NOT AVBL
CLINTONVILLE   NOT AVBL
$$

WIZ038-039-048-051-041500-
FOX VALLEY

CITY           SKY/WX    TMP DP  RH WIND       PRES   REMARKS
NWS GREEN BAY  SUNNY     72  62  71 N5        29.97R
APPLETON       SUNNY     66  57  72 W7        29.97R
OSHKOSH        SUNNY     71  61  70 CALM      29.97R
FOND DU LAC    SUNNY     69  61  75 SW3       29.98R
$$

WIZ022-050-052-041500-
EAST CENTRAL WISCONSIN

CITY           SKY/WX    TMP DP  RH WIND       PRES   REMARKS
STURGEON BAY   SUNNY     68  61  77 NE5       29.99R
MANITOWOC      NOT AVBL
SHEBOYGAN      SUNNY     71  60  68 W5        29.97R
$$

LMZ563-521-522-541>543-041500-
LAKESHORE

STATION/POSITION TIME  TEMP    WIND        PRES    VSBY  WAVE
                       AIR SEA DIR/SP/G                  HT/PER
                 (UTC) (F)     (DEG/KT/KT) (MB)    (MI)  (FT/S)
SHEBOYGAN LKSHOR 1300   67     270/  8/ 10 1014.4S
KEWAUNEE LKSHORE 1300   67     300/  3/  7 1013.6R
NORTHPORT PIER   1300   63     100/  2/  5 1014.6R
N MID LAKE BUOY  1250   49 43  350/  2/  4 1014.5R         1/ 3
CHAMBERS ISLAND  1300   64      20/  7/  9 1014.9R
MENOMINEE LKSHOR 1300   64      40/ 10/ 12 1015.2R
$$


USA.gov is the U.S. government's official web portal to all federal, state and local government web resources and services.